Location: ??????
(55.2000°N, 38.3000°E)
Time: 00:43:10
(UTC+00:00)

Cosmos 1697 Rocket - Pass Details

Date: 15 November 2025
Orbit: 832 x 842 km, 71.0° (Epoch: 12 December)

Event Time Altitude Azimuth Distance (km) Brightness Sun altitude
Exits shadow 04:11:52 - 326° (NNW) 3,120 5.1 -6.9°
Reaches altitude 10° 04:13:41 10° 332° (NNW) 2,456 4.7 -6.6°
Maximum altitude 04:19:06 45° 45° (NE) 1,124 3.6 -5.9°
Drops below altitude 10° 04:24:29 10° 118° (ESE) 2,450 7.1 -5.2°
Sets 04:27:02 0° 124° (SE) 3,383 8.2 -4.9°
